Regional Weather Roundup
Issued by NWS

Home | Current Version | Previous Version | Text Only | Print | Product List | Glossary On
Versions: 1 2 3 4 5 6 7 8 9 10 11 12 13 14 15 16 17 18 19 20 21 22 23 24 25 26 27 28 29 30 31 32 33 34 35 36 37 38 39 40 41 42 43 44 45 46 47 48 49 50
413
ASUS44 KJAN 191403
RWRMS

MISSISSIPPI HOURLY WEATHER ROUNDUP
NATIONAL WEATHER SERVICE JACKSON MS
900 AM CDT SAT APR 19 2014

NOTE: "FAIR: INDICATES FEW OR NO CLOUDS BELOW 12,000 FEET WITH NO
SIGNIFICANT WEATHER AND/OR OBSTRUCTIONS TO VISIBILITY.

MSZ001>002-007>008-010>013-018>021-025>028-034>036-191500-
NORTHWEST MISSISSIPPI

CITY           SKY/WX    TMP DP  RH WIND       PRES   REMARKS
CLARKSDALE       N/A     61  57  88 CALM      30.23S
CLEVELAND      FAIR      62  57  86 NW7       30.22S
GREENWOOD      SUNNY     61  55  81 NW3       30.22R
GREENVILLE     SUNNY     63  57  81 N6        30.21S
GRENADA        FAIR      61  55  82 NW6       30.21R
OXFORD         FAIR      57  52  82 CALM      30.22S
TUNICA         SUNNY     63  55  77 N5        30.23S
$$

MSZ003>006-009-014>017-022>024-029>033-037>039-191500-
NORTHEAST MISSISSIPPI

CITY           SKY/WX    TMP DP  RH WIND       PRES   REMARKS
BELMONT        FAIR      61  52  72 N7        30.19S
COLUMBUS AFB   SUNNY     60  54  80 N9        30.18R
CORINTH        FAIR      61  54  77 E3        30.20F
GOLDN TRIANGLE SUNNY     61  52  72 N12       30.20S
STARKVILLE     FAIR      59  54  82 N6        30.18R
TUPELO         SUNNY     62  52  69 NE9       30.19S
$$

MSZ040-058-191500-
CENTRAL MISSISSIPPI

CITY           SKY/WX    TMP DP  RH WIND       PRES   REMARKS
JACKSON INTL   SUNNY     62  55  77 N7        30.20S
JACKSON HAWKNS SUNNY     62  53  72 NW5       30.21R
MERIDIAN KEY   SUNNY     62  53  72 N7        30.16R
MERIDIAN NAS   SUNNY     63  51  65 N13G20    30.15R
RAYMOND        FAIR      57  52  82 CALM      30.20S
VICKSBURG      SUNNY     63  55  75 CALM      30.21R
$$

MSZ059>079-191500-
SOUTH MISSISSIPPI

CITY           SKY/WX    TMP DP  RH WIND       PRES   REMARKS
BROOKHAVEN     FAIR      61  54  77 CALM      30.20S
COLUMBIA       FAIR      61  54  77 MISG      30.17S
HATTIESBURG    SUNNY     60  52  74 NW5       30.18R
MCCOMB         SUNNY     62  50  64 N8        30.16F
NATCHEZ        SUNNY     61  52  72 CALM      30.19R
PINE BELT      SUNNY     63  50  63 N9        30.18R
$$

MSZ080>082-191500-
COASTAL MISSISSIPPI

CITY           SKY/WX    TMP DP  RH WIND       PRES   REMARKS
BILOXI         SUNNY     62  52  68 N10       30.14S
PASCAGOULA     SUNNY     61  52  72 N13       30.13R
GULFPORT       SUNNY     64  51  62 N12       30.14S
$$



USA.gov is the U.S. government's official web portal to all federal, state and local government web resources and services.